Greenville, TX

11:48 PM CDT on October 19, 2019 (GMT -0500)
Majors

Weather History for KGVT - September, 2019

Change the Weather History Date:

Friday, September 20, 2019

  Actual Average Record
Temperature  
Mean Temperature 86 °F -  
Max Temperature 95 °F 82 °F 98 °F (1999)
Min Temperature 77 °F 64 °F 53 °F (2006)
Cooling Degree Days 21    
Growing Degree Days 36 (Base 50)    
Moisture  
Dew Point 74 °F    
Average Humidity 76    
Maximum Humidity 100    
Minimum Humidity 41    
Precipitation  
Precipitation 0.04 in - - ()
Sea Level Pressure  
Sea Level Pressure 29.97 in    
Wind  
Wind Speed 12 mph (SSE)    
Max Wind Speed 24 mph    
Max Gust Speed 26 mph    
Visibility 10 miles    
Events Rain , Thunderstorm    
Averages and records for this station are not official NWS values.
T = Trace of Precipitation, MM = Missing Value Source: NWS Daily Summary

Daily Weather History Graph

Daily Weather History Graph

Search for Another Location

Airport or City:

Astronomy

Sep. 20, 2019 Rise Set
Actual Time 7:11 AM CDT 7:23 PM CDT
Civil Twilight 6:46 AM CDT 7:48 PM CDT
Nautical Twilight 6:17 AM CDT 8:17 PM CDT
Astronomical Twilight 5:48 AM CDT 8:46 PM CDT
Moon 11:32 PM CDT 12:59 PM CDT
Length of Visible Light 13h 02m
Length of Day
12h 12m
Waning Gibbous, 65% of the Moon is Illuminated
Sep 20
Waning Gibbous
Sep 21
Last Quarter
Sep 28
New
Oct 5
First Quarter
Oct 13
Full

Hourly Weather History & Observations

Time (CDT) Temp. Heat Index Dew Point Humidity Pressure Visibility Wind Dir Wind Speed Gust Speed Precip Events Conditions
12:35 AM 77.0 °F - 77.0 °F 100% 29.94 in 10.0 mi SSE 12.7 mph - 0.01 in   Overcast
12:55 AM 77.0 °F - 77.0 °F 100% 29.93 in 10.0 mi SSE 11.5 mph - 0.02 in   Overcast
1:15 AM 77.0 °F - 77.0 °F 100% 29.94 in 10.0 mi South 11.5 mph - N/A   Overcast
1:35 AM 77.0 °F - 77.0 °F 100% 29.94 in 10.0 mi South 9.2 mph - N/A   Overcast
1:55 AM 77.0 °F - 77.0 °F 100% 29.94 in 10.0 mi South 11.5 mph - N/A   Overcast
2:15 AM 77.0 °F - 77.0 °F 100% 29.94 in 10.0 mi SSE 9.2 mph - N/A   Overcast
2:35 AM 77.0 °F - 77.0 °F 100% 29.94 in 10.0 mi South 9.2 mph - N/A Rain Light Rain
2:55 AM 77.0 °F - 77.0 °F 100% 29.94 in 10.0 mi South 8.1 mph - N/A   Overcast
3:15 AM 77.0 °F - 77.0 °F 100% 29.93 in 10.0 mi South 9.2 mph - N/A   Overcast
3:35 AM 77.0 °F - 77.0 °F 100% 29.93 in 10.0 mi South 5.8 mph - N/A   Overcast
3:55 AM 77.0 °F - - N/A% 29.93 in 10.0 mi South 9.2 mph - N/A   Overcast
4:15 AM 77.0 °F - - N/A% 29.92 in 10.0 mi South 9.2 mph - N/A   Overcast
4:35 AM 77.0 °F - - N/A% 29.93 in 10.0 mi South 6.9 mph - N/A   Overcast
4:55 AM 77.0 °F - 77.0 °F 100% 29.94 in 10.0 mi South 8.1 mph - N/A   Overcast
5:15 AM 77.0 °F - 77.0 °F 100% 29.94 in 10.0 mi South 10.4 mph - N/A   Overcast
5:35 AM 77.0 °F - 77.0 °F 100% 29.93 in 10.0 mi SSE 9.2 mph - N/A   Overcast
5:55 AM 78.8 °F - 78.8 °F 100% 29.93 in 10.0 mi South 9.2 mph - N/A   Overcast
6:15 AM 78.8 °F - 77.0 °F 94% 29.93 in 10.0 mi South 12.7 mph - N/A   Overcast
6:35 AM 78.8 °F - 77.0 °F 94% 29.94 in 10.0 mi South 13.8 mph - N/A Thunderstorm Thunderstorm
6:55 AM 78.8 °F - 77.0 °F 94% 29.94 in 10.0 mi South 13.8 mph - N/A Thunderstorm Overcast
7:15 AM 78.8 °F - 78.8 °F 100% 29.95 in 10.0 mi South 12.7 mph - N/A Thunderstorm Overcast
7:35 AM 78.8 °F - 78.8 °F 100% 29.95 in 10.0 mi South 12.7 mph - N/A   Overcast
7:55 AM 78.8 °F - 78.8 °F 100% 29.96 in 10.0 mi South 13.8 mph - N/A Thunderstorm Overcast
8:15 AM 78.8 °F - 77.0 °F 94% 29.97 in 10.0 mi South 11.5 mph 17.3 mph N/A Thunderstorm Thunderstorm
8:35 AM 78.8 °F - 77.0 °F 94% 29.97 in 10.0 mi South 13.8 mph - N/A   Overcast
8:55 AM 78.8 °F - 78.8 °F 100% 29.98 in 10.0 mi South 11.5 mph 17.3 mph N/A Thunderstorm Drizzle
9:15 AM 80.6 °F 88.1 °F 78.8 °F 94% 29.98 in 10.0 mi South 12.7 mph - N/A Thunderstorm Overcast
9:35 AM 80.6 °F 88.1 °F 78.8 °F 94% 29.99 in 7.0 mi South 9.2 mph - N/A Rain Rain
9:55 AM 80.6 °F 88.1 °F 78.8 °F 94% 29.99 in 10.0 mi South 10.4 mph 18.4 mph 0.01 in Rain Light Rain
10:15 AM 80.6 °F 88.1 °F 78.8 °F 94% 30.00 in 10.0 mi South 12.7 mph - N/A   Overcast
10:35 AM 82.4 °F 90.9 °F 77.0 °F 84% 30.00 in 10.0 mi South 16.1 mph 19.6 mph N/A   Overcast
10:55 AM 82.4 °F 92.4 °F 78.8 °F 89% 30.00 in 10.0 mi South 12.7 mph 19.6 mph N/A   Light Drizzle
11:15 AM 82.4 °F 90.9 °F 77.0 °F 84% 30.00 in 10.0 mi South 11.5 mph - N/A   Overcast
11:35 AM 86.0 °F 96.9 °F 77.0 °F 74% 30.00 in 10.0 mi South 11.5 mph 18.4 mph N/A   Mostly Cloudy
11:55 AM 86.0 °F 95.1 °F 75.2 °F 70% 30.00 in 10.0 mi South 15.0 mph 18.4 mph 0.01 in   Mostly Cloudy
12:15 PM 87.8 °F 95.6 °F 73.4 °F 62% 29.99 in 10.0 mi South 17.3 mph 24.2 mph N/A   Overcast
12:35 PM 89.6 °F 98.2 °F 73.4 °F 59% 29.99 in 10.0 mi South 15.0 mph 19.6 mph N/A   Mostly Cloudy
12:55 PM 89.6 °F 98.2 °F 73.4 °F 59% 29.98 in 10.0 mi South 18.4 mph 25.3 mph N/A   Mostly Cloudy
1:15 PM 93.2 °F 100.5 °F 71.6 °F 49% 29.96 in 10.0 mi South 16.1 mph 23.0 mph N/A   Overcast
1:35 PM 91.4 °F 98.4 °F 71.6 °F 52% 29.95 in 10.0 mi SSE 18.4 mph 23.0 mph N/A   Mostly Cloudy
1:55 PM 95.0 °F 101.3 °F 69.8 °F 44% 29.95 in 10.0 mi South 16.1 mph 21.9 mph N/A   Mostly Cloudy
2:15 PM 95.0 °F 101.3 °F 69.8 °F 44% 29.95 in 10.0 mi South 16.1 mph 21.9 mph N/A   Mostly Cloudy
2:35 PM 95.0 °F 101.3 °F 69.8 °F 44% 29.93 in 10.0 mi South 16.1 mph 20.7 mph N/A   Mostly Cloudy
2:55 PM 93.2 °F 98.8 °F 69.8 °F 46% 29.94 in 10.0 mi SSE 11.5 mph 23.0 mph N/A   Mostly Cloudy
3:15 PM 93.2 °F 97.7 °F 68.0 °F 44% 29.94 in 10.0 mi SE 13.8 mph 19.6 mph N/A   Mostly Cloudy
3:35 PM 95.0 °F 99.5 °F 68.0 °F 41% 29.93 in 10.0 mi SSE 16.1 mph 23.0 mph N/A   Overcast
3:55 PM 95.0 °F 99.5 °F 68.0 °F 41% 29.93 in 10.0 mi SE 16.1 mph 25.3 mph N/A   Overcast
4:15 PM 95.0 °F 99.5 °F 68.0 °F 41% 29.93 in 10.0 mi SSE 13.8 mph - N/A   Mostly Cloudy
4:35 PM 93.2 °F 98.8 °F 69.8 °F 46% 29.94 in 10.0 mi SSE 24.2 mph - N/A   Mostly Cloudy
4:55 PM 87.8 °F 93.8 °F 71.6 °F 58% 29.94 in 10.0 mi SE 19.6 mph 26.5 mph N/A   Scattered Clouds
5:15 PM 89.6 °F 96.2 °F 71.6 °F 55% 29.95 in 10.0 mi SE 12.7 mph 19.6 mph N/A   Scattered Clouds
5:35 PM 89.6 °F 96.2 °F 71.6 °F 55% 29.95 in 10.0 mi SSE 17.3 mph 23.0 mph N/A   Clear
5:55 PM 87.8 °F 93.8 °F 71.6 °F 58% 29.96 in 10.0 mi SSE 16.1 mph 23.0 mph N/A   Clear
6:15 PM 87.8 °F 93.8 °F 71.6 °F 58% 29.96 in 10.0 mi SSE 17.3 mph - N/A   Clear
6:35 PM 87.8 °F 93.8 °F 71.6 °F 58% 29.97 in 10.0 mi SE 15.0 mph 20.7 mph N/A   Clear
6:55 PM 86.0 °F 91.8 °F 71.6 °F 62% 29.97 in 10.0 mi SE 12.7 mph - N/A   Clear
7:15 PM 86.0 °F 91.8 °F 71.6 °F 62% 29.98 in 10.0 mi SSE 16.1 mph 25.3 mph N/A   Scattered Clouds
7:35 PM 84.2 °F 89.6 °F 71.6 °F 66% 29.99 in 10.0 mi SE 11.5 mph 15.0 mph N/A   Clear
7:55 PM 82.4 °F 87.2 °F 71.6 °F 70% 29.99 in 10.0 mi SE 9.2 mph 17.3 mph N/A   Clear
8:15 PM 82.4 °F 86.3 °F 69.8 °F 66% 30.01 in 10.0 mi SSE 11.5 mph - N/A   Scattered Clouds
8:35 PM 82.4 °F 86.3 °F 69.8 °F 66% 30.01 in 10.0 mi SE 9.2 mph - N/A   Mostly Cloudy
8:55 PM 82.4 °F 86.3 °F 69.8 °F 66% 30.01 in 10.0 mi SE 11.5 mph - N/A   Mostly Cloudy
9:15 PM 82.4 °F 86.3 °F 69.8 °F 66% 30.02 in 10.0 mi SE 9.2 mph - N/A   Mostly Cloudy
9:35 PM 80.6 °F 84.6 °F 71.6 °F 74% 30.03 in 10.0 mi SE 12.7 mph - N/A   Scattered Clouds
9:55 PM 80.6 °F 84.6 °F 71.6 °F 74% 30.02 in 10.0 mi SE 15.0 mph - N/A   Clear
10:15 PM 82.4 °F 87.2 °F 71.6 °F 70% 30.03 in 10.0 mi SSE 13.8 mph 19.6 mph N/A   Clear
10:35 PM 82.4 °F 87.2 °F 71.6 °F 70% 30.04 in 10.0 mi SSE 11.5 mph 17.3 mph N/A   Clear
10:55 PM 82.4 °F 87.2 °F 71.6 °F 70% 30.04 in 10.0 mi SSE 15.0 mph 20.7 mph N/A   Clear
11:15 PM 80.6 °F 84.6 °F 71.6 °F 74% 30.04 in 10.0 mi SSE 18.4 mph - N/A   Clear
11:35 PM 80.6 °F 84.6 °F 71.6 °F 74% 30.04 in 10.0 mi SSE 18.4 mph 25.3 mph N/A   Clear
11:55 PM 80.6 °F 84.6 °F 71.6 °F 74% 30.04 in 10.0 mi SSE 15.0 mph 21.9 mph N/A   Clear